RH
11 10 10 9 9 8 7 6 6 7 7 7 7 7 6 6 6 6 6 6 7 7 7 7 7 7 6 6 5 5 6 6 5 5 6 6 6 6 9 11 11 12 13 17 23 26 26 27 35 40 44 48 48 49 58 66 71 78 85 87 85 85 86 86 83 81 81 80 81 78 75 82 83 78 79 77 74 65 60 59 55 50 45 42 43 41 41 43
10 10 10 10 10 9 7 6 6 7 6 6 6 6 6 6 6 6 6 7 7 7 7 7 7 7 7 7 6 5 4 5 6 6 7 6 6 6 8 9 10 10 11 14 20 25 25 28 34 38 43 48 49 50 58 65 70 79 86 85 83 83 82 82 81 81 79 77 81 79 75 83 80 75 80 78 73 67 62 60 56 52 46 44 43 38 39 41
9 10 10 10 10 10 8 7 6 6 6 6 6 6 6 6 6 6 6 7 7 7 7 7 7 7 7 7 7 6 5 7 7 9 10 8 7 6 7 8 9 9 10 12 17 23 27 30 33 35 40 45 49 51 57 65 72 81 83 83 82 79 79 78 79 81 79 77 81 80 77 83 79 75 81 77 70 67 63 59 54 51 45 42 41 37 38 40
9 9 9 9 9 9 10 9 8 7 7 7 7 7 7 7 7 7 7 8 8 8 7 7 7 7 7 6 7 6 6 10 12 12 12 10 9 7 7 7 8 9 9 11 15 21 27 31 33 33 36 41 46 46 51 62 71 78 79 79 77 74 78 78 75 79 81 80 80 81 81 83 80 79 82 77 70 65 59 55 51 46 43 40 39 37 38 40
8 9 9 9 10 10 10 11 10 10 10 10 9 9 9 9 8 8 9 9 10 10 9 9 9 8 7 6 7 5 7 13 16 15 13 11 10 8 8 6 7 8 8 10 12 19 26 30 32 33 36 40 44 40 44 57 64 73 76 74 72 71 77 76 73 78 84 85 81 82 83 78 79 82 79 71 68 63 52 50 48 44 40 38 37 36 38 40
8 9 9 10 11 11 11 11 11 11 10 10 10 10 10 11 10 10 10 10 10 10 10 10 10 9 8 7 6 5 8 12 15 17 15 13 12 10 8 7 7 7 8 8 11 18 24 30 32 35 38 41 42 37 42 52 59 70 73 70 71 72 75 75 74 77 83 87 82 83 83 77 79 80 72 65 67 63 50 47 48 43 39 38 37 36 38 40
8 9 10 10 11 11 11 11 11 10 10 10 10 10 10 10 10 10 9 10 10 9 9 9 10 10 10 7 5 6 8 11 12 14 16 15 14 13 10 8 6 7 7 8 11 17 23 29 34 38 41 40 39 36 39 48 56 67 72 71 72 74 74 73 76 78 82 87 84 85 85 79 77 74 68 65 66 62 53 50 51 47 40 38 36 36 39 40
9 9 10 11 11 12 11 11 11 11 11 10 11 11 10 10 10 10 10 9 9 8 8 8 9 9 9 8 6 6 8 11 12 12 13 14 14 14 12 9 6 7 7 8 12 17 23 29 34 38 39 36 35 34 37 46 55 64 70 72 72 72 72 74 79 81 85 88 85 85 87 83 78 71 67 66 66 62 56 53 53 50 42 38 36 35 39 40
9 9 10 11 11 11 12 12 12 11 11 11 11 11 11 11 10 10 10 9 8 9 8 8 9 9 9 7 6 9 10 11 12 11 10 12 13 13 12 10 7 6 7 9 13 17 21 28 34 36 35 35 35 34 35 44 55 64 70 71 70 69 70 76 81 84 89 90 85 85 87 85 79 72 69 69 67 65 58 53 54 50 41 38 36 35 38 41
9 9 10 11 11 12 12 12 12 11 11 11 11 11 11 11 10 10 10 9 9 9 9 8 9 8 8 6 6 12 13 9 10 9 9 12 13 12 12 11 8 6 6 11 15 16 20 27 33 34 35 34 34 34 34 42 53 64 71 71 70 69 71 76 81 86 89 90 88 88 89 86 79 74 73 72 70 68 62 57 55 48 40 39 36 35 37 39
9 9 10 11 12 12 12 12 12 11 11 11 11 11 10 10 10 10 10 9 9 9 8 7 7 6 6 6 6 10 10 7 8 6 8 13 13 12 11 11 9 7 6 11 15 16 20 27 31 33 36 34 34 38 42 47 54 62 68 70 70 69 73 77 81 85 87 89 88 86 89 86 80 77 75 72 69 69 67 58 51 45 39 40 37 36 36 38
9 10 10 11 12 12 12 12 12 11 11 11 11 10 10 10 10 10 10 9 9 9 8 6 7 6 8 10 8 8 7 7 7 6 8 10 10 10 10 10 10 8 7 11 14 16 20 25 28 33 35 32 34 42 50 56 58 61 64 68 70 69 74 77 79 84 85 88 86 82 89 88 83 81 76 74 71 72 70 57 48 43 40 42 39 38 39 41
9 10 10 11 12 12 12 12 11 11 11 11 11 10 11 10 10 10 9 9 10 11 10 9 10 11 14 14 11 9 8 7 6 5 6 7 8 9 10 11 11 9 9 10 13 16 19 23 26 30 33 32 30 37 50 56 57 61 62 68 72 71 76 79 79 84 86 90 88 84 90 90 87 85 79 78 75 73 69 55 48 44 43 46 43 42 45 46
9 10 11 12 12 12 12 11 11 11 11 11 12 11 11 10 10 9 10 11 11 14 13 13 15 17 18 15 13 12 10 9 7 5 6 6 7 9 11 14 13 11 11 11 13 16 19 20 23 28 30 31 29 36 49 53 57 63 64 70 73 72 78 79 80 86 89 91 90 87 90 90 90 87 82 81 76 71 64 54 50 49 48 50 48 45 47 47
9 10 11 12 12 12 12 11 11 11 11 12 13 13 12 11 11 11 13 13 13 15 14 14 17 20 20 16 14 13 10 10 10 8 8 8 9 11 11 14 14 13 13 14 14 17 19 18 22 27 30 30 29 37 49 54 62 67 68 74 73 72 77 77 79 84 89 90 89 89 90 91 90 85 81 80 75 69 60 52 53 54 50 52 51 47 45 45
9 11 12 12 12 11 11 11 12 11 12 12 13 14 13 12 13 14 15 15 16 17 17 17 17 20 22 17 14 13 11 11 12 12 11 11 13 13 12 14 14 13 15 16 16 16 18 18 21 26 29 31 29 32 43 56 69 70 69 76 74 73 76 78 78 79 85 90 88 89 91 92 91 84 80 79 76 70 60 52 53 55 51 51 53 49 43 44
8 11 12 12 12 11 11 12 12 12 12 12 13 13 14 13 14 15 16 17 18 19 21 20 17 20 22 17 14 13 12 12 11 12 13 14 16 15 14 15 13 13 16 18 17 17 17 18 20 25 28 31 30 30 35 49 67 71 69 74 75 75 76 78 80 78 83 89 88 88 91 91 90 84 80 79 77 71 62 54 53 54 52 51 52 49 44 44
8 11 12 12 11 11 11 11 12 12 12 13 13 13 14 14 14 16 17 18 19 20 22 22 20 20 18 15 14 13 11 11 11 12 14 15 17 17 15 16 13 13 17 20 20 18 18 17 19 25 29 32 33 32 32 39 55 66 68 73 77 77 77 77 78 78 80 86 87 88 89 89 87 84 82 81 79 73 65 58 54 53 54 54 53 50 46 44
8 10 12 12 11 11 11 11 12 12 12 13 14 14 14 15 16 18 18 18 19 20 20 20 20 18 16 14 14 13 11 11 11 12 14 15 17 17 16 15 14 13 16 20 22 20 18 17 18 23 27 32 34 33 37 42 50 60 64 68 74 75 77 76 76 76 77 82 87 86 86 87 88 86 84 83 80 74 69 62 57 54 55 56 54 50 47 45
8 10 11 12 11 11 11 12 12 12 13 14 14 14 15 17 19 20 20 19 18 19 17 17 19 18 16 15 14 13 11 11 13 14 14 15 15 15 15 15 15 15 17 19 22 22 19 17 18 20 24 31 34 36 45 49 47 55 60 62 67 70 72 73 75 77 77 81 86 86 86 88 88 89 87 86 83 78 74 67 61 59 58 57 55 52 49 46
9 10 11 12 11 11 11 11 12 12 13 13 14 15 15 18 21 22 22 20 19 18 18 18 20 20 17 17 16 14 13 13 16 15 13 14 15 15 15 15 14 16 18 19 21 21 19 17 15 15 21 28 33 37 47 50 45 49 57 61 66 69 68 71 75 77 76 80 86 85 87 88 87 89 89 88 86 83 80 73 65 62 62 60 57 56 53 49
11 11 11 12 11 10 11 11 12 12 13 14 13 14 16 19 21 22 22 21 19 20 20 18 19 19 17 17 16 15 17 17 18 19 17 14 14 16 16 16 17 17 18 19 20 21 20 16 12 11 17 25 30 36 45 47 43 47 58 65 71 73 71 74 77 77 76 78 85 86 86 88 88 89 90 89 89 86 84 78 68 65 67 64 59 58 58 54
12 12 11 11 10 10 10 11 11 12 13 13 13 15 17 19 20 21 22 22 22 21 20 18 18 18 17 17 15 16 20 21 21 23 20 15 15 18 19 19 20 19 18 18 19 21 20 16 11 10 15 22 27 33 40 42 42 48 56 62 71 72 69 73 77 79 77 77 83 88 88 89 91 91 89 88 88 86 84 81 72 66 69 68 61 59 60 58
12 13 12 11 10 9 9 11 11 12 12 12 14 17 19 20 19 20 22 25 25 21 18 17 17 16 17 17 16 19 21 22 24 22 18 18 19 20 21 22 22 22 20 19 19 19 18 14 11 10 14 20 24 29 36 39 40 45 50 56 67 68 64 67 71 73 77 78 80 86 91 91 92 92 90 88 87 86 84 82 76 70 71 72 65 59 61 59
12 14 12 10 10 9 9 10 11 11 11 12 15 19 20 21 21 21 24 28 27 22 19 17 16 16 17 18 18 20 20 22 25 22 18 21 23 20 21 22 22 23 22 21 22 19 17 15 12 11 13 18 23 26 32 36 40 47 50 51 59 63 63 67 67 69 79 84 79 80 89 92 91 91 90 91 90 85 83 84 81 76 74 74 69 62 62 60
12 14 12 10 9 8 9 10 10 11 12 13 14 18 21 22 24 25 27 31 27 21 18 16 16 17 18 20 19 20 22 24 25 22 20 23 24 21 21 22 22 24 24 25 25 21 17 15 14 13 13 16 21 25 30 35 39 48 48 47 54 60 64 68 66 67 76 80 75 75 85 91 91 90 88 91 92 86 83 84 84 80 76 76 73 68 65 62
12 14 12 11 9 8 9 9 9 11 12 14 15 18 20 23 27 28 31 34 24 16 16 14 16 18 18 20 20 20 24 28 29 27 24 24 25 22 23 24 24 25 25 26 28 25 19 16 14 13 12 14 19 23 29 34 37 42 42 48 58 61 64 66 64 64 68 70 73 75 81 88 89 87 85 87 90 89 85 83 84 82 79 77 75 71 68 62
13 13 12 10 8 8 7 8 10 11 12 14 16 19 19 23 29 30 34 35 21 12 15 15 15 17 17 19 21 22 24 27 32 31 26 25 26 24 24 24 24 26 27 28 32 30 22 18 16 14 12 14 17 20 26 30 36 43 45 50 59 61 63 64 63 64 64 68 77 79 79 84 86 84 85 87 89 91 89 86 84 84 81 79 76 73 71 63
13 13 12 10 8 7 7 8 11 12 12 14 18 19 20 26 30 31 39 38 21 13 16 16 16 17 17 18 20 24 25 25 29 30 28 27 24 24 27 26 24 27 28 29 32 30 24 21 20 17 13 13 15 20 25 27 34 44 49 53 58 61 63 64 64 66 65 69 77 76 75 79 83 83 85 89 89 86 86 86 84 81 80 80 78 76 75 67
13 12 11 9 8 7 6 9 11 12 11 13 19 20 22 28 33 38 43 34 21 16 15 15 17 18 19 21 22 25 27 26 27 28 30 29 25 24 28 28 26 30 32 33 34 32 27 23 22 20 17 14 16 21 25 28 35 42 49 56 63 68 69 68 68 67 68 72 70 68 68 71 78 81 80 81 79 74 76 80 79 78 77 78 78 79 78 71
13 13 11 10 9 6 7 10 11 12 10 13 20 21 24 30 35 45 42 24 17 17 15 15 19 20 21 23 26 28 29 28 27 28 30 31 30 27 27 29 31 35 37 37 34 32 28 25 25 23 20 19 21 26 27 30 38 44 51 59 69 78 76 74 74 71 71 70 61 60 66 69 73 73 71 70 67 67 69 70 71 72 73 75 77 79 79 74
13 13 11 10 9 6 8 10 11 11 10 15 21 22 28 33 36 42 33 17 16 16 15 18 21 23 24 24 28 30 29 28 26 28 28 32 35 30 27 30 34 37 39 38 35 32 30 28 27 24 22 22 24 29 32 33 38 47 55 58 68 84 86 83 80 73 68 63 54 55 66 73 70 62 62 64 63 64 66 65 66 67 68 71 74 77 79 76
15 14 13 11 9 7 7 9 10 10 11 17 24 25 30 36 38 36 24 14 14 13 15 20 24 28 28 27 28 28 28 28 27 29 29 31 36 33 28 29 32 37 39 38 37 36 32 29 27 25 23 22 24 32 36 33 37 49 56 55 63 80 85 82 76 68 63 56 52 56 66 72 65 56 58 60 59 61 63 65 67 65 66 68 70 74 76 77
16 15 14 11 9 7 7 10 10 10 13 19 26 29 30 34 36 31 19 13 12 12 16 21 26 30 30 29 30 27 29 30 29 31 32 34 36 36 33 31 32 36 37 38 39 37 34 33 31 29 29 24 25 34 36 31 35 46 50 50 54 63 63 62 63 60 57 58 59 60 65 70 64 57 57 56 57 59 62 66 67 65 65 66 68 71 73 76
17 16 14 11 8 8 8 10 10 11 15 21 28 32 31 32 33 24 15 12 11 13 16 19 23 27 29 31 28 26 30 34 32 34 36 37 38 39 39 37 34 35 38 41 41 37 36 38 35 33 34 27 24 32 34 30 34 42 44 44 46 49 47 46 49 48 50 62 71 66 63 65 62 58 56 56 57 58 59 62 64 64 64 64 68 70 71 74
18 16 15 12 8 9 9 11 12 12 15 21 29 32 30 31 29 20 14 13 11 11 14 18 21 25 29 30 26 25 30 34 36 37 37 37 40 42 44 40 34 35 40 41 41 39 38 40 38 34 33 31 28 32 33 30 34 40 41 41 42 43 42 42 43 43 46 57 68 66 61 61 61 60 59 58 59 59 57 58 60 63 63 64 67 68 69 70
18 17 17 14 10 10 11 12 13 12 14 21 30 33 31 29 26 19 14 12 10 11 14 18 21 24 27 29 28 26 27 31 34 37 37 37 41 43 43 41 36 36 40 39 40 42 38 40 39 34 34 35 32 34 34 31 33 38 39 39 39 38 38 38 38 41 44 48 60 65 61 61 63 62 60 59 60 59 55 55 57 61 63 63 66 67 67 67
17 18 19 16 13 11 13 13 13 15 18 24 31 34 31 28 25 20 14 10 10 12 15 17 19 23 25 27 29 27 27 28 30 35 38 38 43 43 39 40 38 36 35 35 38 41 39 41 41 35 35 35 32 34 37 36 36 38 37 36 37 37 39 39 36 39 40 44 59 67 64 64 64 60 56 56 57 56 54 56 57 57 59 61 65 66 66 67
20 22 22 21 18 16 14 13 15 19 23 28 31 31 29 28 24 19 13 10 11 13 15 16 17 22 23 23 25 27 28 28 27 32 37 39 44 43 38 40 40 36 34 34 36 39 40 44 46 40 37 35 34 37 41 40 39 39 37 35 35 36 38 39 36 37 39 46 62 69 65 65 64 60 56 54 54 55 55 57 58 57 58 59 61 63 65 67
21 24 26 26 25 22 17 15 18 23 26 30 32 29 29 29 25 18 13 11 11 12 14 15 15 18 20 21 24 27 27 26 25 31 37 38 41 41 39 41 40 38 37 35 35 38 41 44 46 44 41 40 40 41 42 42 40 38 37 36 35 34 36 36 35 37 40 48 62 69 68 64 61 61 59 54 53 55 56 58 60 60 59 60 60 61 63 64
20 26 30 30 28 24 19 17 20 23 27 29 29 27 27 27 24 19 14 11 11 13 14 14 14 17 19 20 23 26 26 25 27 33 35 32 34 37 37 38 38 36 37 37 36 38 41 43 44 46 46 43 39 39 40 40 39 39 39 40 38 35 34 34 36 37 36 40 52 62 63 61 58 59 59 56 55 55 57 58 60 62 61 61 61 61 63 64
23 28 30 30 30 26 21 20 22 23 26 26 26 26 26 25 22 19 16 12 12 14 13 14 15 17 18 18 21 23 24 25 28 32 32 29 30 33 32 32 34 33 35 39 38 38 42 44 44 46 49 46 40 40 42 43 42 41 42 43 39 37 36 33 33 36 34 35 44 52 56 56 57 59 58 57 56 54 54 53 55 61 63 63 64 64 65 66
23 24 25 28 31 28 25 26 26 26 27 27 27 28 25 21 21 21 20 17 14 14 14 15 16 18 18 17 19 20 21 24 26 28 32 32 30 30 29 29 30 31 34 37 37 38 42 47 48 48 49 47 44 43 44 43 43 45 46 45 41 42 42 34 30 33 33 35 43 53 59 57 55 57 55 55 56 55 54 52 51 56 60 62 65 66 67 68
21 21 24 28 30 30 30 31 30 29 30 29 27 27 24 23 23 24 24 22 19 15 14 14 14 18 18 15 16 19 21 23 25 26 31 33 29 27 29 30 29 30 32 33 34 36 39 47 54 54 57 60 59 55 50 46 48 51 51 49 46 46 43 34 32 33 32 36 42 49 55 54 52 54 53 54 58 58 58 56 52 53 57 60 64 66 68 69
22 22 25 30 32 31 33 34 31 29 28 27 26 26 27 27 26 25 26 23 19 15 14 13 12 14 16 15 16 20 22 23 25 27 29 29 26 25 29 31 29 29 32 33 33 34 36 46 56 59 65 73 75 70 64 59 58 57 55 52 48 46 43 37 37 40 39 42 45 45 47 48 48 49 50 53 58 60 58 57 55 55 57 61 64 66 67 69
25 26 28 32 35 33 34 34 31 28 25 25 26 26 27 27 25 26 27 23 18 17 16 13 12 12 13 15 18 20 21 23 25 26 26 26 25 25 28 31 29 28 31 32 32 33 36 43 52 58 64 69 72 71 68 65 63 60 57 55 50 47 44 42 44 48 49 49 51 50 45 44 47 50 52 55 58 59 59 58 58 58 60 64 66 66 67 69
27 28 30 35 38 38 36 35 33 31 28 28 28 26 27 29 27 26 26 23 20 20 17 13 12 13 15 17 19 20 21 23 24 24 25 26 26 26 26 28 28 27 28 30 30 32 37 41 47 53 56 59 63 65 63 62 63 60 57 54 52 49 47 46 47 51 51 45 47 52 50 52 60 62 60 60 60 60 61 60 60 59 60 63 65 68 70 70
28 29 32 35 39 42 42 40 39 35 31 31 29 26 27 30 29 27 27 27 25 23 22 20 16 16 19 20 21 21 23 25 25 24 25 25 26 26 26 26 28 29 31 33 33 34 39 43 44 46 48 50 55 60 62 63 62 61 58 54 53 52 52 52 48 48 50 45 45 52 55 59 66 64 59 58 60 60 62 61 62 63 64 65 68 71 71 70
30 31 31 32 37 42 44 45 42 37 34 33 32 28 27 27 29 30 30 30 28 26 27 28 23 19 20 22 22 22 25 26 25 24 24 25 27 29 29 29 30 33 37 38 35 34 39 44 44 41 42 46 50 55 62 65 64 64 62 58 55 54 56 58 53 50 53 53 54 56 55 58 64 64 61 59 57 58 62 64 63 65 66 67 70 72 71 71
32 32 30 31 36 41 46 48 45 41 38 35 34 33 31 29 29 30 30 31 31 28 28 30 28 25 24 26 24 22 25 27 25 23 23 26 33 36 34 32 33 34 37 36 35 33 36 42 44 41 41 47 51 54 58 62 64 65 65 64 60 56 57 60 59 59 62 65 67 64 61 62 63 64 65 64 60 60 62 63 63 64 65 66 69 72 72 73
32 31 30 33 37 40 46 50 48 46 42 37 36 37 37 36 34 32 31 32 31 30 29 28 27 29 31 30 26 22 24 25 22 20 20 23 30 35 34 34 35 37 36 35 36 36 35 40 45 43 44 49 53 55 57 59 62 64 65 66 65 62 61 63 63 64 69 73 72 68 66 67 66 65 67 65 63 65 66 64 64 65 65 64 66 69 71 73
30 29 29 32 36 38 45 52 51 48 44 40 39 38 36 35 34 33 33 34 30 28 30 28 26 28 30 28 25 23 22 21 20 19 18 18 22 27 29 30 33 35 37 37 36 37 38 41 45 44 43 47 52 56 58 59 66 72 69 66 66 65 63 65 65 65 68 72 73 71 72 71 69 69 69 65 64 68 70 70 67 64 63 63 63 65 68 72